Weather History for Beaumont, TX

Change the Weather History Date:

Sunday, January 13, 2013

  Actual Average Record
Temperature  
Mean Temperature 58 °F 52 °F  
Max Temperature 71 °F 62 °F 82 °F (2000)
Min Temperature 44 °F 43 °F 20 °F (1963)
Degree Days  
Heating Degree Days 7 13  
Month to date heating degree days 148 169  
Since 1 July heating degree days 594 719  
Cooling Degree Days 0 0  
Month to date cooling degree days 7 0  
Year to date cooling degree days 7 0  
Growing Degree Days 8 (Base 50)    
Moisture  
Dew Point 51 °F    
Average Humidity 93    
Maximum Humidity 100    
Minimum Humidity 86    
Precipitation  
Precipitation 0.08 in 0.18 in 2.48 in (1977)
Month to date precipitation 7.79 2.31  
Year to date precipitation 7.79 2.31  
Snow  
Snow 0.00 in 0.00 in 0.20 in (1982)
Month to date snowfall 0.0 0.0  
Since 1 July snowfall 0.0 T  
Snow Depth 0.00 in    
Sea Level Pressure  
Sea Level Pressure 29.95 in    
Wind  
Wind Speed 14 mph (NNW)    
Max Wind Speed 24 mph    
Max Gust Speed 31 mph    
Visibility 8 miles    
Events Rain    
T = Trace of Precipitation, MM = Missing Value Source: NWS Daily Summary

Daily Weather History Graph

Daily Weather History Graph

Search for Another Location

Airport:

Trip Planner

Search our weather history database for the weather conditions in past years. The results will help you decide how hot, cold, wet, or windy it might be!

Date:

Astronomy

Jan. 13, 2013 Rise Set
Actual Time 7:12 AM CST 5:37 PM CST
Civil Twilight 6:46 AM CST 6:03 PM CST
Nautical Twilight 6:17 AM CST 6:32 PM CST
Astronomical Twilight 5:48 AM CST 7:01 PM CST
Moon 8:23 AM CST (1/13) 8:02 PM CST (1/13)
Length of Visible Light 11h 16m
Length of Day
10h 24m
Waxing Crescent, 5% of the Moon is Illuminated
Jan 13
Waxing Crescent
Jan 18
First Quarter
Jan 26
Full
Feb 3
Last Quarter
Feb 10
New

Hourly Weather History & Observations

Time (CST) Temp. Windchill Dew Point Humidity Pressure Visibility Wind Dir Wind Speed Gust Speed Precip Events Conditions
12:29 AM 71.6 °F - 68.0 °F 88% 29.81 in 8.0 mi South 9.2 mph 17.3 mph N/A   Overcast
12:53 AM 71.1 °F - 68.0 °F 90% 29.81 in 8.0 mi South 10.4 mph - N/A   Overcast
1:11 AM 71.6 °F - 68.0 °F 88% 29.80 in 9.0 mi South 11.5 mph - 0.00 in Rain Light Rain
1:25 AM 71.6 °F - 68.0 °F 88% 29.82 in 9.0 mi South 10.4 mph - 0.00 in   Overcast
1:36 AM 71.6 °F - 68.0 °F 88% 29.82 in 6.0 mi SSW 11.5 mph 19.6 mph 0.00 in Rain Light Rain
1:53 AM 70.0 °F - 69.1 °F 97% 29.83 in 4.0 mi South 8.1 mph - 0.01 in Rain Rain
2:35 AM 69.8 °F - 68.0 °F 94% 29.83 in 6.0 mi South 8.1 mph - 0.02 in Rain Light Rain
2:53 AM 69.1 °F - 68.0 °F 96% 29.83 in 5.0 mi South 8.1 mph - 0.02 in Rain Light Rain
3:03 AM 69.8 °F - 68.0 °F 94% 29.83 in 6.0 mi South 8.1 mph - 0.01 in   Overcast
3:53 AM 68.0 °F - 66.9 °F 96% 29.80 in 6.0 mi South 10.4 mph - 0.01 in   Mostly Cloudy
4:53 AM 68.0 °F - 66.9 °F 96% 29.81 in 6.0 mi SSW 4.6 mph - N/A   Scattered Clouds
5:34 AM 68.0 °F - 66.2 °F 94% 29.81 in 6.0 mi SSW 4.6 mph - N/A   Overcast
5:41 AM 68.0 °F - 66.2 °F 94% 29.81 in 6.0 mi SSW 5.8 mph - N/A   Overcast
5:53 AM 68.0 °F - 66.9 °F 96% 29.81 in 6.0 mi SSW 4.6 mph - N/A   Overcast
6:53 AM 54.0 °F - 53.1 °F 97% 29.88 in 10.0 mi WNW 12.7 mph - N/A   Overcast
7:53 AM 48.0 °F - 46.9 °F 96% 29.91 in 10.5 mi NNW 21.9 mph 27.6 mph N/A   Overcast
7:56 AM 48.2 °F - 46.4 °F 93% 29.92 in 2.5 mi NW 20.7 mph 27.6 mph N/A   Overcast
8:53 AM 45.0 °F 37.1 °F 43.0 °F 93% 29.96 in 2.5 mi NNW 19.6 mph 25.3 mph N/A   Overcast
9:00 AM 44.6 °F 36.9 °F 42.8 °F 93% 29.97 in 5.0 mi NNW 18.4 mph - 0.00 in Rain Light Rain
9:40 AM 44.6 °F 36.6 °F 42.8 °F 93% 29.98 in 6.0 mi NNW 19.6 mph 25.3 mph 0.00 in Rain Light Rain
9:53 AM 44.6 °F 36.1 °F 42.8 °F 93% 29.99 in 2.0 mi North 21.9 mph 26.5 mph N/A Rain Light Rain
10:53 AM 45.0 °F 37.9 °F 43.0 °F 93% 30.00 in 2.0 mi NNW 16.1 mph 23.0 mph 0.01 in   Overcast
11:00 AM 44.6 °F 37.2 °F 42.8 °F 93% 30.00 in 10.0 mi NNW 17.3 mph 23.0 mph N/A   Overcast
11:12 AM 46.4 °F 39.8 °F 42.8 °F 87% 29.99 in 10.0 mi NNW 16.1 mph 25.3 mph N/A   Overcast
11:53 AM 45.0 °F 37.4 °F 43.0 °F 93% 29.99 in 10.0 mi NNW 18.4 mph 26.5 mph 0.00 in Rain Light Rain
12:53 PM 46.0 °F 39.3 °F 43.0 °F 89% 29.99 in 10.0 mi NNW 16.1 mph 27.6 mph 0.03 in   Overcast
1:07 PM 46.4 °F 39.5 °F 44.6 °F 93% 29.99 in 10.0 mi North 17.3 mph 26.5 mph N/A   Overcast
1:53 PM 46.9 °F - 43.0 °F 86% 29.99 in 10.0 mi NNW 17.3 mph - N/A   Overcast
2:16 PM 46.4 °F 40.4 °F 44.6 °F 93% 30.00 in 10.0 mi NNW 13.8 mph - N/A   Overcast
2:46 PM 46.4 °F 39.2 °F 42.8 °F 87% 30.00 in 10.0 mi North 18.4 mph - N/A   Overcast
2:53 PM 46.9 °F - 43.0 °F 86% 30.00 in 10.0 mi NNW 18.4 mph - N/A   Overcast
3:46 PM 48.2 °F - 42.8 °F 82% 30.02 in 10.0 mi North 15.0 mph 26.5 mph N/A   Overcast
3:53 PM 46.9 °F - 42.1 °F 83% 30.02 in 10.0 mi North 23.0 mph 28.8 mph N/A   Overcast
4:53 PM 46.9 °F - 43.0 °F 86% 30.05 in 10.0 mi North 15.0 mph - N/A   Overcast
5:53 PM 46.9 °F - 43.0 °F 86% 30.06 in 10.0 mi North 13.8 mph 20.7 mph N/A   Overcast
6:53 PM 46.9 °F - 42.1 °F 83% 30.09 in 10.0 mi North 18.4 mph 21.9 mph N/A   Overcast
7:26 PM 46.4 °F 39.0 °F 42.8 °F 87% 30.08 in 10.0 mi North 19.6 mph 24.2 mph N/A   Overcast
7:53 PM 46.0 °F 40.6 °F 42.1 °F 86% 30.09 in 10.0 mi North 11.5 mph - N/A   Overcast
8:53 PM 45.0 °F 37.9 °F 41.0 °F 86% 30.08 in 10.0 mi North 16.1 mph - N/A   Overcast
9:53 PM 45.0 °F 38.9 °F 41.0 °F 86% 30.09 in 10.0 mi North 12.7 mph 26.5 mph N/A   Overcast
10:53 PM 45.0 °F 40.1 °F 41.0 °F 86% 30.11 in 10.0 mi NNE 9.2 mph - N/A   Overcast
11:53 PM 45.0 °F 38.2 °F 41.0 °F 86% 30.11 in 10.0 mi North 15.0 mph - N/A   Overcast